Home   Weather   Aurora   Past weeks

Flag for USA Past Weather in Aurora, Colorado, USA — Yesterday and Last 2 Weeks

Now
51 °F

Scattered clouds.


Feels Like: 50 °F
Forecast: 20 / 49 °F
Wind: 5 mph from Northwest

Location: Buckley Air Force Base

Current Time: Dec 4, 2016 at 1:24:08 pm

Latest Report: Dec 4, 2016 at 12:58 pm


Visibility: 10 mi

Pressure: 29.85 "Hg (24.48 "Hg at 1647m altitude)

Humidity: 17%

Dew Point: 8 °F

Location of AuroraLocation

Past Weather in Aurora — Graph

°F

Aurora Temperature Yesterday

Maximum temperature yesterday: 40 °F (at 11:58 am)
Minimum temperature yesterday: 17 °F (at 3:58 am)
Average temperature yesterday: 27 °F

High & Low Weather Summary for the Past Weeks

 TemperatureHumidityPressure
High67 °F (Nov 20, 1:58 pm)100% (Nov 22, 5:58 am)30.39 "Hg (Nov 22, 5:58 am)
Low17 °F (Dec 3, 3:58 am)6% (Nov 25, 1:58 pm)29.20 "Hg (Nov 27, 12:58 pm)
Average36 °F48%29.93 "Hg
* Reported Nov 19 11:58 am — Dec 4 11:58 am, Aurora, Weather by CustomWeather, © 2016

Note: Actual official high and low records may vary slightly from our data, if they occured in-between our weather recording intervals... More about our weather records

Advertising

Aurora Weather History for the Previous 24 Hours

Scroll right to see more
 ConditionsComfort  
Time TempWeatherWind HumidityBarometerVisibility
11:58 am
Sun, Dec 4
50 °FPassing clouds.5 mph16%29.91 "Hg10 mi
10:58 am47 °FPassing clouds.No wind17%29.96 "Hg10 mi
9:58 am40 °FPassing clouds.10 mph24%29.98 "Hg10 mi
8:58 am32 °FPassing clouds.10 mph36%30.03 "Hg10 mi
7:58 am24 °FPassing clouds.12 mph46%30.07 "Hg10 mi
6:58 am21 °FPassing clouds.10 mph49%30.09 "Hg10 mi
5:58 am20 °FPassing clouds.10 mph50%30.06 "Hg10 mi
4:58 am20 °FClear.10 mph53%30.08 "Hg10 mi
3:58 am20 °FClear.10 mph56%30.05 "Hg10 mi
2:58 am19 °FClear.10 mph59%30.06 "Hg10 mi
1:58 am19 °FClear.9 mph62%30.07 "Hg10 mi
12:58 am20 °FClear.8 mph60%30.09 "Hg10 mi
11:58 pm
Sat, Dec 3
21 °FClear.8 mph60%30.06 "Hg10 mi
10:58 pm21 °FPassing clouds.7 mph60%30.09 "Hg10 mi
9:58 pm26 °FPassing clouds.3 mph48%30.09 "Hg10 mi
8:58 pm29 °FPassing clouds.No wind51%30.14 "Hg10 mi
7:58 pm27 °FPassing clouds.3 mph60%30.14 "Hg10 mi
6:58 pm29 °FPassing clouds.5 mph58%30.11 "Hg10 mi
5:58 pm30 °FPassing clouds.5 mph52%30.08 "Hg10 mi
4:58 pm33 °FPassing clouds.5 mph42%30.07 "Hg10 mi
3:58 pm36 °FPartly sunny.6 mph35%30.03 "Hg10 mi
2:58 pm40 °FPartly sunny.7 mph26%29.99 "Hg10 mi
1:58 pm40 °FPartly sunny.6 mph25%29.97 "Hg10 mi
Weather by CustomWeather, © 2016

See weather overviewHow to use our weather pages